Time,TemperatureF,DewpointF,PressureIn,WindDirection,WindDirectionDegrees,WindSpeedMPH,WindSpeedGustMPH,Humidity,HourlyPrecipIn,Conditions,Clouds,dailyrainin,SoftwareType,DateUTC
2013-02-11 00:00:00,34.8,32.7,30.07,NW,315,0.0,0.0,92,0.00,,,0.00,WeatherCatV1.11B39,2013-02-11 08:00:00,
2013-02-11 00:05:00,34.7,32.6,30.07,NW,315,0.0,0.0,92,0.00,,,0.00,WeatherCatV1.11B39,2013-02-11 08:05:00,
2013-02-11 00:10:00,34.5,32.4,30.06,NW,315,0.0,0.0,92,0.00,,,0.00,WeatherCatV1.11B39,2013-02-11 08:10:00,
2013-02-11 00:15:00,34.5,32.4,30.06,NW,315,0.0,0.0,92,0.00,,,0.00,WeatherCatV1.11B39,2013-02-11 08:15:00,
2013-02-11 00:20:00,34.4,32.3,30.06,NW,315,0.0,0.0,92,0.00,,,0.00,WeatherCatV1.11B39,2013-02-11 08:20:00,
2013-02-11 00:25:00,34.4,32.3,30.06,NW,315,0.0,0.0,92,0.00,,,0.00,WeatherCatV1.11B39,2013-02-11 08:25:00,
2013-02-11 00:30:00,34.3,32.2,30.06,NW,315,0.0,0.0,92,0.00,,,0.00,WeatherCatV1.11B39,2013-02-11 08:30:00,
2013-02-11 00:35:00,34.2,32.1,30.06,NW,315,0.0,0.0,92,0.00,,,0.00,WeatherCatV1.11B39,2013-02-11 08:35:00,
2013-02-11 00:40:00,34.1,32.0,30.07,NW,315,0.0,0.0,92,0.00,,,0.00,WeatherCatV1.11B39,2013-02-11 08:40:00,
2013-02-11 00:45:00,33.9,31.8,30.07,NW,315,0.0,0.0,92,0.00,,,0.00,WeatherCatV1.11B39,2013-02-11 08:45:00,
2013-02-11 00:50:00,33.8,31.7,30.07,NW,315,0.0,0.0,92,0.00,,,0.00,WeatherCatV1.11B39,2013-02-11 08:50:00,
2013-02-11 00:55:00,33.7,31.9,30.07,NW,315,0.0,0.0,93,0.00,,,0.00,WeatherCatV1.11B39,2013-02-11 08:55:00,
2013-02-11 01:00:00,33.6,31.8,30.07,NW,315,0.0,0.0,93,0.00,,,0.00,WeatherCatV1.11B39,2013-02-11 09:00:00,
2013-02-11 01:05:00,33.7,31.9,30.07,NW,315,0.0,0.0,93,0.00,,,0.00,WeatherCatV1.11B39,2013-02-11 09:05:00,
2013-02-11 01:10:00,33.6,31.8,30.07,NW,315,0.0,0.0,93,0.00,,,0.00,WeatherCatV1.11B39,2013-02-11 09:10:00,
2013-02-11 01:15:00,33.5,31.7,30.07,NW,315,0.0,0.0,93,0.00,,,0.00,WeatherCatV1.11B39,2013-02-11 09:15:00,
2013-02-11 01:20:00,33.4,31.6,30.07,NW,315,0.0,0.0,93,0.00,,,0.00,WeatherCatV1.11B39,2013-02-11 09:20:00,
2013-02-11 01:25:00,33.4,31.6,30.07,NW,315,0.0,0.0,93,0.00,,,0.00,WeatherCatV1.11B39,2013-02-11 09:25:00,
2013-02-11 01:30:00,33.3,31.5,30.07,NW,315,0.0,0.0,93,0.00,,,0.00,WeatherCatV1.11B39,2013-02-11 09:30:00,
2013-02-11 01:35:00,33.1,31.3,30.07,NW,315,0.0,0.0,93,0.00,,,0.00,WeatherCatV1.11B39,2013-02-11 09:35:00,
2013-02-11 01:40:00,32.8,31.0,30.07,NW,315,0.0,0.0,93,0.00,,,0.00,WeatherCatV1.11B39,2013-02-11 09:40:00,
2013-02-11 01:45:00,32.6,30.8,30.07,NW,315,0.0,0.0,93,0.00,,,0.00,WeatherCatV1.11B39,2013-02-11 09:45:00,
2013-02-11 01:50:00,32.5,30.7,30.07,NW,315,0.0,0.0,93,0.00,,,0.00,WeatherCatV1.11B39,2013-02-11 09:50:00,
2013-02-11 01:55:00,32.4,30.6,30.07,NW,315,0.0,0.0,93,0.00,,,0.00,WeatherCatV1.11B39,2013-02-11 09:55:00,
2013-02-11 02:00:00,32.3,30.5,30.08,NW,315,0.0,0.0,93,0.00,,,0.00,WeatherCatV1.11B39,2013-02-11 10:00:00,
2013-02-11 02:05:00,32.1,30.3,30.08,NW,315,0.0,0.0,93,0.00,,,0.00,WeatherCatV1.11B39,2013-02-11 10:05:00,
2013-02-11 02:10:00,32.0,30.2,30.08,NW,315,0.0,0.0,93,0.00,,,0.00,WeatherCatV1.11B39,2013-02-11 10:10:00,
2013-02-11 02:15:00,31.7,29.9,30.08,NW,315,0.0,0.0,93,0.00,,,0.00,WeatherCatV1.11B39,2013-02-11 10:15:00,
2013-02-11 02:20:00,31.6,29.8,30.08,NW,315,0.0,0.0,93,0.00,,,0.00,WeatherCatV1.11B39,2013-02-11 10:20:00,
2013-02-11 02:25:00,31.5,29.7,30.08,NW,315,0.0,0.0,93,0.00,,,0.00,WeatherCatV1.11B39,2013-02-11 10:25:00,
2013-02-11 02:30:00,31.4,29.6,30.08,NW,315,0.0,0.0,93,0.00,,,0.00,WeatherCatV1.11B39,2013-02-11 10:30:00,
2013-02-11 02:35:00,31.4,29.6,30.08,NW,315,0.0,0.0,93,0.00,,,0.00,WeatherCatV1.11B39,2013-02-11 10:35:00,
2013-02-11 02:40:00,31.8,30.3,30.08,NW,315,0.0,0.0,94,0.00,,,0.00,WeatherCatV1.11B39,2013-02-11 10:40:00,
2013-02-11 02:45:00,32.4,31.1,30.08,NW,315,0.0,0.0,95,0.00,,,0.00,WeatherCatV1.11B39,2013-02-11 10:45:00,
2013-02-11 02:50:00,32.7,31.4,30.08,NW,315,0.0,0.0,95,0.00,,,0.00,WeatherCatV1.11B39,2013-02-11 10:50:00,
2013-02-11 02:55:00,32.9,31.6,30.08,NW,315,0.0,0.0,95,0.00,,,0.00,WeatherCatV1.11B39,2013-02-11 10:55:00,
2013-02-11 03:00:00,32.9,31.6,30.08,NW,315,0.0,0.0,95,0.00,,,0.00,WeatherCatV1.11B39,2013-02-11 11:00:00,
2013-02-11 03:05:00,32.9,31.6,30.08,NW,315,0.0,0.0,95,0.00,,,0.00,WeatherCatV1.11B39,2013-02-11 11:05:00,
2013-02-11 03:10:00,32.9,31.6,30.08,NW,315,0.0,0.0,95,0.00,,,0.00,WeatherCatV1.11B39,2013-02-11 11:10:00,
2013-02-11 03:15:00,33.0,31.7,30.08,NW,315,0.0,0.0,95,0.00,,,0.00,WeatherCatV1.11B39,2013-02-11 11:15:00,
2013-02-11 03:20:00,33.2,31.9,30.08,NW,315,0.0,0.0,95,0.00,,,0.00,WeatherCatV1.11B39,2013-02-11 11:20:00,
2013-02-11 03:25:00,33.2,31.9,30.08,NW,315,0.0,1.0,95,0.00,,,0.00,WeatherCatV1.11B39,2013-02-11 11:25:00,
2013-02-11 03:30:00,33.1,31.8,30.08,NW,315,0.0,0.0,95,0.00,,,0.00,WeatherCatV1.11B39,2013-02-11 11:30:00,
2013-02-11 03:35:00,33.0,31.7,30.08,NW,315,0.0,0.0,95,0.00,,,0.00,WeatherCatV1.11B39,2013-02-11 11:35:00,
2013-02-11 03:40:00,32.9,31.6,30.08,NW,315,0.0,0.0,95,0.00,,,0.00,WeatherCatV1.11B39,2013-02-11 11:40:00,
2013-02-11 03:45:00,32.9,31.6,30.08,NW,315,0.0,0.0,95,0.00,,,0.00,WeatherCatV1.11B39,2013-02-11 11:45:00,
2013-02-11 03:50:00,32.8,31.5,30.08,NW,315,0.0,1.0,95,0.00,,,0.00,WeatherCatV1.11B39,2013-02-11 11:50:00,
2013-02-11 03:55:00,33.0,31.7,30.08,NW,315,0.0,1.0,95,0.00,,,0.00,WeatherCatV1.11B39,2013-02-11 11:55:00,
2013-02-11 04:00:00,33.3,32.3,30.08,NW,315,0.0,1.0,96,0.00,,,0.00,WeatherCatV1.11B39,2013-02-11 12:00:00,
2013-02-11 04:05:00,33.5,32.5,30.08,NW,315,0.0,0.0,96,0.00,,,0.00,WeatherCatV1.11B39,2013-02-11 12:05:00,
2013-02-11 04:10:00,33.2,31.9,30.08,NW,315,0.0,0.0,95,0.00,,,0.00,WeatherCatV1.11B39,2013-02-11 12:10:00,
2013-02-11 04:15:00,32.8,31.5,30.08,NW,315,0.0,0.0,95,0.00,,,0.00,WeatherCatV1.11B39,2013-02-11 12:15:00,
2013-02-11 04:20:00,32.6,31.3,30.08,NW,315,0.0,0.0,95,0.00,,,0.00,WeatherCatV1.11B39,2013-02-11 12:20:00,
2013-02-11 04:25:00,32.5,31.2,30.08,NW,315,0.0,1.0,95,0.00,,,0.00,WeatherCatV1.11B39,2013-02-11 12:25:00,
2013-02-11 04:30:00,32.9,31.9,30.08,NW,315,0.0,1.0,96,0.00,,,0.00,WeatherCatV1.11B39,2013-02-11 12:30:00,
2013-02-11 04:35:00,33.0,32.0,30.08,NW,315,0.0,0.0,96,0.00,,,0.00,WeatherCatV1.11B39,2013-02-11 12:35:00,
2013-02-11 04:40:00,33.0,31.7,30.08,NW,315,0.0,1.0,95,0.00,,,0.00,WeatherCatV1.11B39,2013-02-11 12:40:00,
2013-02-11 04:45:00,33.2,32.2,30.08,NW,315,0.0,0.0,96,0.00,,,0.00,WeatherCatV1.11B39,2013-02-11 12:45:00,
2013-02-11 04:50:00,33.1,32.1,30.08,NW,315,0.0,0.0,96,0.00,,,0.00,WeatherCatV1.11B39,2013-02-11 12:50:00,
2013-02-11 04:55:00,33.0,31.7,30.08,NW,315,0.0,0.0,95,0.00,,,0.00,WeatherCatV1.11B39,2013-02-11 12:55:00,
2013-02-11 05:00:00,32.9,31.6,30.08,NW,315,0.0,0.0,95,0.00,,,0.00,WeatherCatV1.11B39,2013-02-11 13:00:00,
2013-02-11 05:05:00,32.6,31.3,30.08,NW,315,0.0,0.0,95,0.00,,,0.00,WeatherCatV1.11B39,2013-02-11 13:05:00,
2013-02-11 05:10:00,32.5,31.2,30.08,NW,315,0.0,0.0,95,0.00,,,0.00,WeatherCatV1.11B39,2013-02-11 13:10:00,
2013-02-11 05:15:00,32.4,31.1,30.08,NW,315,0.0,0.0,95,0.00,,,0.00,WeatherCatV1.11B39,2013-02-11 13:15:00,
2013-02-11 05:20:00,32.3,31.0,30.08,NW,315,0.0,0.0,95,0.00,,,0.00,WeatherCatV1.11B39,2013-02-11 13:20:00,
2013-02-11 05:25:00,32.2,30.9,30.08,NW,315,0.0,0.0,95,0.00,,,0.00,WeatherCatV1.11B39,2013-02-11 13:25:00,
2013-02-11 05:30:00,32.1,30.8,30.09,NW,315,0.0,1.0,95,0.00,,,0.00,WeatherCatV1.11B39,2013-02-11 13:30:00,
2013-02-11 05:35:00,31.7,30.4,30.09,NW,315,0.0,0.0,95,0.00,,,0.00,WeatherCatV1.11B39,2013-02-11 13:35:00,
2013-02-11 05:40:00,31.5,30.2,30.09,NW,315,0.0,0.0,95,0.00,,,0.00,WeatherCatV1.11B39,2013-02-11 13:40:00,
2013-02-11 05:45:00,31.2,29.9,30.09,NW,315,0.0,0.0,95,0.00,,,0.00,WeatherCatV1.11B39,2013-02-11 13:45:00,
2013-02-11 05:50:00,31.1,29.8,30.10,NW,315,0.0,0.0,95,0.00,,,0.00,WeatherCatV1.11B39,2013-02-11 13:50:00,
2013-02-11 05:55:00,31.1,29.8,30.10,NW,315,0.0,0.0,95,0.00,,,0.00,WeatherCatV1.11B39,2013-02-11 13:55:00,
2013-02-11 06:00:00,31.1,29.8,30.10,NW,315,0.0,0.0,95,0.00,,,0.00,WeatherCatV1.11B39,2013-02-11 14:00:00,
2013-02-11 06:05:00,31.0,29.7,30.10,NW,315,0.0,0.0,95,0.00,,,0.00,WeatherCatV1.11B39,2013-02-11 14:05:00,
2013-02-11 06:10:00,30.7,29.4,30.11,NW,315,2.0,3.0,95,0.00,,,0.00,WeatherCatV1.11B39,2013-02-11 14:10:00,
2013-02-11 06:15:00,30.3,29.0,30.11,NW,315,0.0,0.0,95,0.00,,,0.00,WeatherCatV1.11B39,2013-02-11 14:15:00,
2013-02-11 06:20:00,30.1,28.9,30.11,NW,315,0.0,0.0,95,0.00,,,0.00,WeatherCatV1.11B39,2013-02-11 14:20:00,
2013-02-11 06:25:00,29.9,28.7,30.11,NW,315,0.0,0.0,95,0.00,,,0.00,WeatherCatV1.11B39,2013-02-11 14:25:00,
2013-02-11 06:30:00,29.8,28.5,30.11,NW,315,0.0,0.0,95,0.00,,,0.00,WeatherCatV1.11B39,2013-02-11 14:30:00,
2013-02-11 06:35:00,29.7,28.5,30.12,NW,315,0.0,1.0,95,0.00,,,0.00,WeatherCatV1.11B39,2013-02-11 14:35:00,
2013-02-11 06:40:00,29.6,28.3,30.12,NW,315,0.0,0.0,95,0.00,,,0.00,WeatherCatV1.11B39,2013-02-11 14:40:00,
2013-02-11 06:45:00,29.6,28.3,30.12,NW,315,0.0,0.0,95,0.00,,,0.00,WeatherCatV1.11B39,2013-02-11 14:45:00,
2013-02-11 06:50:00,29.4,28.1,30.12,NW,315,0.0,0.0,95,0.00,,,0.00,WeatherCatV1.11B39,2013-02-11 14:50:00,
2013-02-11 06:55:00,29.4,28.1,30.12,NW,315,0.0,0.0,95,0.00,,,0.00,WeatherCatV1.11B39,2013-02-11 14:55:00,
2013-02-11 07:00:00,29.3,28.0,30.12,NW,315,0.0,0.0,95,0.00,,,0.00,WeatherCatV1.11B39,2013-02-11 15:00:00,
2013-02-11 07:05:00,29.2,28.0,30.13,NW,315,0.0,0.0,95,0.00,,,0.00,WeatherCatV1.11B39,2013-02-11 15:05:00,
2013-02-11 07:10:00,29.1,27.8,30.13,NW,315,0.0,0.0,95,0.00,,,0.00,WeatherCatV1.11B39,2013-02-11 15:10:00,
2013-02-11 07:15:00,29.0,27.8,30.14,NW,315,0.0,0.0,95,0.00,,,0.00,WeatherCatV1.11B39,2013-02-11 15:15:00,
2013-02-11 07:20:00,29.0,27.8,30.14,NW,315,0.0,0.0,95,0.00,,,0.00,WeatherCatV1.11B39,2013-02-11 15:20:00,
2013-02-11 07:25:00,29.2,28.0,30.14,NW,315,0.0,0.0,95,0.00,,,0.00,WeatherCatV1.11B39,2013-02-11 15:25:00,
2013-02-11 07:30:00,29.6,28.6,30.14,NW,315,0.0,0.0,96,0.00,,,0.00,WeatherCatV1.11B39,2013-02-11 15:30:00,
2013-02-11 07:35:00,30.0,29.0,30.15,NW,315,0.0,0.0,96,0.00,,,0.00,WeatherCatV1.11B39,2013-02-11 15:35:00,
2013-02-11 07:40:00,30.1,29.1,30.15,NW,315,0.0,0.0,96,0.00,,,0.00,WeatherCatV1.11B39,2013-02-11 15:40:00,
2013-02-11 07:45:00,30.3,29.3,30.15,NW,315,0.0,0.0,96,0.00,,,0.00,WeatherCatV1.11B39,2013-02-11 15:45:00,
2013-02-11 07:50:00,31.1,30.1,30.15,NW,315,0.0,0.0,96,0.00,,,0.00,WeatherCatV1.11B39,2013-02-11 15:50:00,
2013-02-11 07:55:00,32.0,31.2,30.15,NW,315,0.0,0.0,97,0.00,,,0.00,WeatherCatV1.11B39,2013-02-11 15:55:00,
2013-02-11 08:00:00,33.2,32.5,30.15,NW,315,1.0,2.0,97,0.00,,,0.00,WeatherCatV1.11B39,2013-02-11 16:00:00,
2013-02-11 08:05:00,34.1,33.3,30.16,NW,315,1.0,2.0,97,0.00,,,0.00,WeatherCatV1.11B39,2013-02-11 16:05:00,
2013-02-11 08:10:00,35.0,34.2,30.16,NNW,338,1.0,4.0,97,0.00,,,0.00,WeatherCatV1.11B39,2013-02-11 16:10:00,
2013-02-11 08:15:00,36.0,35.2,30.16,North,0,2.0,3.0,97,0.00,,,0.00,WeatherCatV1.11B39,2013-02-11 16:15:00,
2013-02-11 08:20:00,36.9,36.1,30.16,North,0,2.0,4.0,97,0.00,,,0.00,WeatherCatV1.11B39,2013-02-11 16:20:00,
2013-02-11 08:25:00,37.6,36.6,30.16,NNE,22,2.0,4.0,96,0.00,,,0.00,WeatherCatV1.11B39,2013-02-11 16:25:00,
2013-02-11 08:30:00,38.4,37.4,30.16,NNE,22,0.0,1.0,96,0.00,,,0.00,WeatherCatV1.11B39,2013-02-11 16:30:00,
2013-02-11 08:35:00,39.0,37.7,30.16,NNE,22,0.0,2.0,95,0.00,,,0.00,WeatherCatV1.11B39,2013-02-11 16:35:00,
2013-02-11 08:40:00,39.6,38.0,30.17,NNE,22,0.0,0.0,94,0.00,,,0.00,WeatherCatV1.11B39,2013-02-11 16:40:00,
2013-02-11 08:45:00,40.4,38.8,30.16,NNE,22,0.0,1.0,94,0.00,,,0.00,WeatherCatV1.11B39,2013-02-11 16:45:00,
2013-02-11 08:50:00,41.2,38.8,30.17,NNE,22,0.0,1.0,91,0.00,,,0.00,WeatherCatV1.11B39,2013-02-11 16:50:00,
2013-02-11 08:55:00,41.9,38.9,30.17,NNE,22,0.0,0.0,89,0.00,,,0.00,WeatherCatV1.11B39,2013-02-11 16:55:00,
2013-02-11 09:00:00,42.8,39.5,30.17,NNE,22,1.0,3.0,88,0.00,,,0.00,WeatherCatV1.11B39,2013-02-11 17:00:00,
2013-02-11 09:05:00,43.6,39.4,30.17,NNE,22,3.0,4.0,85,0.00,,,0.00,WeatherCatV1.11B39,2013-02-11 17:05:00,
2013-02-11 09:10:00,44.2,39.4,30.17,East,90,2.0,3.0,83,0.00,,,0.00,WeatherCatV1.11B39,2013-02-11 17:10:00,
2013-02-11 09:15:00,44.7,39.5,30.17,East,90,0.0,1.0,82,0.00,,,0.00,WeatherCatV1.11B39,2013-02-11 17:15:00,
2013-02-11 09:20:00,45.4,39.9,30.17,East,90,1.0,3.0,81,0.00,,,0.00,WeatherCatV1.11B39,2013-02-11 17:20:00,
2013-02-11 09:25:00,46.0,39.5,30.17,ENE,68,3.0,5.0,78,0.00,,,0.00,WeatherCatV1.11B39,2013-02-11 17:25:00,
2013-02-11 09:30:00,46.3,39.2,30.17,ENE,68,4.0,5.0,76,0.00,,,0.00,WeatherCatV1.11B39,2013-02-11 17:30:00,
2013-02-11 09:35:00,46.7,39.9,30.17,East,90,2.0,3.0,77,0.00,,,0.00,WeatherCatV1.11B39,2013-02-11 17:35:00,
2013-02-11 09:40:00,47.3,39.8,30.17,East,90,2.0,3.0,75,0.00,,,0.00,WeatherCatV1.11B39,2013-02-11 17:40:00,
2013-02-11 09:45:00,47.9,39.7,30.17,East,90,2.0,4.0,73,0.00,,,0.00,WeatherCatV1.11B39,2013-02-11 17:45:00,
2013-02-11 09:50:00,48.2,39.6,30.18,ENE,68,3.0,4.0,72,0.00,,,0.00,WeatherCatV1.11B39,2013-02-11 17:50:00,
2013-02-11 09:55:00,48.5,39.9,30.18,ENE,68,1.0,3.0,72,0.00,,,0.00,WeatherCatV1.11B39,2013-02-11 17:55:00,
2013-02-11 10:00:00,49.3,41.0,30.18,ENE,68,1.0,3.0,73,0.00,,,0.00,WeatherCatV1.11B39,2013-02-11 18:00:00,
2013-02-11 10:05:00,49.8,40.4,30.17,East,90,3.0,4.0,70,0.00,,,0.00,WeatherCatV1.11B39,2013-02-11 18:05:00,
2013-02-11 10:10:00,49.8,40.4,30.17,East,90,3.0,5.0,70,0.00,,,0.00,WeatherCatV1.11B39,2013-02-11 18:10:00,
2013-02-11 10:15:00,49.8,40.4,30.18,East,90,2.0,4.0,70,0.00,,,0.00,WeatherCatV1.11B39,2013-02-11 18:15:00,
2013-02-11 10:20:00,50.1,40.0,30.18,East,90,3.0,4.0,68,0.00,,,0.00,WeatherCatV1.11B39,2013-02-11 18:20:00,
2013-02-11 10:25:00,50.5,40.7,30.18,East,90,0.0,2.0,69,0.00,,,0.00,WeatherCatV1.11B39,2013-02-11 18:25:00,
2013-02-11 10:30:00,51.0,40.8,30.18,East,90,2.0,3.0,68,0.00,,,0.00,WeatherCatV1.11B39,2013-02-11 18:30:00,
2013-02-11 10:35:00,51.7,41.5,30.18,East,90,0.0,1.0,68,0.00,,,0.00,WeatherCatV1.11B39,2013-02-11 18:35:00,
2013-02-11 10:40:00,52.3,41.7,30.18,East,90,1.0,2.0,67,0.00,,,0.00,WeatherCatV1.11B39,2013-02-11 18:40:00,
2013-02-11 10:45:00,53.0,41.6,30.18,East,90,0.0,0.0,65,0.00,,,0.00,WeatherCatV1.11B39,2013-02-11 18:45:00,
2013-02-11 10:50:00,53.6,41.3,30.18,East,90,0.0,1.0,63,0.00,,,0.00,WeatherCatV1.11B39,2013-02-11 18:50:00,
2013-02-11 10:55:00,54.1,41.8,30.18,East,90,2.0,3.0,63,0.00,,,0.00,WeatherCatV1.11B39,2013-02-11 18:55:00,
2013-02-11 11:00:00,54.3,41.1,30.18,East,90,0.0,1.0,61,0.00,,,0.00,WeatherCatV1.11B39,2013-02-11 19:00:00,
2013-02-11 11:05:00,54.7,41.9,30.18,ESE,112,0.0,1.0,62,0.00,,,0.00,WeatherCatV1.11B39,2013-02-11 19:05:00,
2013-02-11 11:10:00,55.2,42.0,30.18,ESE,112,1.0,1.0,61,0.00,,,0.00,WeatherCatV1.11B39,2013-02-11 19:10:00,
2013-02-11 11:15:00,55.6,41.9,30.18,SE,135,0.0,1.0,60,0.00,,,0.00,WeatherCatV1.11B39,2013-02-11 19:15:00,
2013-02-11 11:20:00,55.5,42.3,30.18,East,90,1.0,3.0,61,0.00,,,0.00,WeatherCatV1.11B39,2013-02-11 19:20:00,
2013-02-11 11:25:00,55.5,42.3,30.18,East,90,0.0,1.0,61,0.00,,,0.00,WeatherCatV1.11B39,2013-02-11 19:25:00,
2013-02-11 11:30:00,55.6,41.9,30.18,East,90,1.0,2.0,60,0.00,,,0.00,WeatherCatV1.11B39,2013-02-11 19:30:00,
2013-02-11 11:35:00,56.1,42.4,30.17,ESE,112,1.0,2.0,60,0.00,,,0.00,WeatherCatV1.11B39,2013-02-11 19:35:00,
2013-02-11 11:40:00,55.9,41.3,30.17,East,90,0.0,0.0,58,0.00,,,0.00,WeatherCatV1.11B39,2013-02-11 19:40:00,
2013-02-11 11:45:00,56.0,41.4,30.17,East,90,1.0,2.0,58,0.00,,,0.00,WeatherCatV1.11B39,2013-02-11 19:45:00,
2013-02-11 11:50:00,56.0,41.4,30.17,East,90,0.0,0.0,58,0.00,,,0.00,WeatherCatV1.11B39,2013-02-11 19:50:00,
2013-02-11 11:55:00,56.3,41.7,30.17,East,90,0.0,2.0,58,0.00,,,0.00,WeatherCatV1.11B39,2013-02-11 19:55:00,
2013-02-11 12:00:00,56.5,41.0,30.17,ESE,112,1.0,2.0,56,0.00,,,0.00,WeatherCatV1.11B39,2013-02-11 20:00:00,
2013-02-11 12:05:00,56.5,41.5,30.17,SSE,158,2.0,4.0,57,0.00,,,0.00,WeatherCatV1.11B39,2013-02-11 20:05:00,
2013-02-11 12:10:00,56.8,41.3,30.17,SSW,202,3.0,4.0,56,0.00,,,0.00,WeatherCatV1.11B39,2013-02-11 20:10:00,
2013-02-11 12:15:00,57.0,41.0,30.17,SSW,202,0.0,2.0,55,0.00,,,0.00,WeatherCatV1.11B39,2013-02-11 20:15:00,
2013-02-11 12:20:00,57.3,41.7,30.16,SSW,202,1.0,4.0,56,0.00,,,0.00,WeatherCatV1.11B39,2013-02-11 20:20:00,
2013-02-11 12:25:00,57.5,41.0,30.16,SSW,202,2.0,5.0,54,0.00,,,0.00,WeatherCatV1.11B39,2013-02-11 20:25:00,
2013-02-11 12:30:00,57.7,42.1,30.16,SE,135,0.0,0.0,56,0.00,,,0.00,WeatherCatV1.11B39,2013-02-11 20:30:00,
2013-02-11 12:35:00,58.1,41.5,30.16,NNW,338,2.0,6.0,54,0.00,,,0.00,WeatherCatV1.11B39,2013-02-11 20:35:00,
2013-02-11 12:40:00,57.8,40.3,30.16,North,0,0.0,2.0,52,0.00,,,0.00,WeatherCatV1.11B39,2013-02-11 20:40:00,
2013-02-11 12:45:00,57.5,41.0,30.16,North,0,2.0,5.0,54,0.00,,,0.00,WeatherCatV1.11B39,2013-02-11 20:45:00,
2013-02-11 12:50:00,56.9,39.9,30.16,NNE,22,2.0,4.0,53,0.00,,,0.00,WeatherCatV1.11B39,2013-02-11 20:50:00,
2013-02-11 12:55:00,56.7,40.2,30.16,NE,45,0.0,1.0,54,0.00,,,0.00,WeatherCatV1.11B39,2013-02-11 20:55:00,
2013-02-11 13:00:00,56.7,40.2,30.16,NW,315,1.0,2.0,54,0.00,,,0.00,WeatherCatV1.11B39,2013-02-11 21:00:00,
2013-02-11 13:05:00,57.1,40.6,30.15,WNW,292,1.0,3.0,54,0.00,,,0.00,WeatherCatV1.11B39,2013-02-11 21:05:00,
2013-02-11 13:10:00,57.2,39.7,30.15,North,0,4.0,6.0,52,0.00,,,0.00,WeatherCatV1.11B39,2013-02-11 21:10:00,
2013-02-11 13:15:00,57.1,39.1,30.15,NW,315,1.0,2.0,51,0.00,,,0.00,WeatherCatV1.11B39,2013-02-11 21:15:00,
2013-02-11 13:20:00,57.2,39.7,30.15,West,270,1.0,2.0,52,0.00,,,0.00,WeatherCatV1.11B39,2013-02-11 21:20:00,
2013-02-11 13:25:00,57.3,39.8,30.15,West,270,0.0,1.0,52,0.00,,,0.00,WeatherCatV1.11B39,2013-02-11 21:25:00,
2013-02-11 13:30:00,57.7,40.7,30.14,WNW,292,0.0,1.0,53,0.00,,,0.00,WeatherCatV1.11B39,2013-02-11 21:30:00,
2013-02-11 13:35:00,57.9,39.9,30.14,WNW,292,0.0,1.0,51,0.00,,,0.00,WeatherCatV1.11B39,2013-02-11 21:35:00,
2013-02-11 13:40:00,58.1,39.0,30.14,WNW,292,0.0,1.0,49,0.00,,,0.00,WeatherCatV1.11B39,2013-02-11 21:40:00,
2013-02-11 13:45:00,58.5,39.9,30.14,West,270,0.0,1.0,50,0.00,,,0.00,WeatherCatV1.11B39,2013-02-11 21:45:00,
2013-02-11 13:50:00,59.4,40.7,30.14,West,270,0.0,2.0,50,0.00,,,0.00,WeatherCatV1.11B39,2013-02-11 21:50:00,
2013-02-11 13:55:00,59.6,40.4,30.14,WNW,292,1.0,3.0,49,0.00,,,0.00,WeatherCatV1.11B39,2013-02-11 21:55:00,
2013-02-11 14:00:00,59.4,40.2,30.14,NW,315,0.0,0.0,49,0.00,,,0.00,WeatherCatV1.11B39,2013-02-11 22:00:00,
2013-02-11 14:05:00,59.3,39.1,30.14,North,0,3.0,4.0,47,0.00,,,0.00,WeatherCatV1.11B39,2013-02-11 22:05:00,
2013-02-11 14:10:00,58.4,38.2,30.14,NNE,22,0.0,1.0,47,0.00,,,0.00,WeatherCatV1.11B39,2013-02-11 22:10:00,
2013-02-11 14:15:00,58.2,38.6,30.14,North,0,0.0,2.0,48,0.00,,,0.00,WeatherCatV1.11B39,2013-02-11 22:15:00,
2013-02-11 14:20:00,58.7,38.5,30.14,WSW,248,0.0,2.0,47,0.00,,,0.00,WeatherCatV1.11B39,2013-02-11 22:20:00,
2013-02-11 14:25:00,58.8,38.1,30.14,North,0,3.0,4.0,46,0.00,,,0.00,WeatherCatV1.11B39,2013-02-11 22:25:00,
2013-02-11 14:30:00,58.4,37.7,30.14,North,0,0.0,1.0,46,0.00,,,0.00,WeatherCatV1.11B39,2013-02-11 22:30:00,
2013-02-11 14:35:00,58.7,39.1,30.14,NW,315,1.0,2.0,48,0.00,,,0.00,WeatherCatV1.11B39,2013-02-11 22:35:00,
2013-02-11 14:40:00,59.3,39.1,30.14,NW,315,0.0,1.0,47,0.00,,,0.00,WeatherCatV1.11B39,2013-02-11 22:40:00,
2013-02-11 14:45:00,59.5,39.3,30.14,NW,315,0.0,0.0,47,0.00,,,0.00,WeatherCatV1.11B39,2013-02-11 22:45:00,
2013-02-11 14:50:00,59.7,40.0,30.13,NNW,338,0.0,1.0,48,0.00,,,0.00,WeatherCatV1.11B39,2013-02-11 22:50:00,
2013-02-11 14:55:00,59.6,39.3,30.14,NNW,338,0.0,1.0,47,0.00,,,0.00,WeatherCatV1.11B39,2013-02-11 22:55:00,
2013-02-11 15:00:00,59.4,38.0,30.14,NNW,338,0.0,1.0,45,0.00,,,0.00,WeatherCatV1.11B39,2013-02-11 23:00:00,
2013-02-11 15:05:00,59.3,38.5,30.14,NNW,338,1.0,3.0,46,0.00,,,0.00,WeatherCatV1.11B39,2013-02-11 23:05:00,
2013-02-11 15:10:00,59.2,38.4,30.14,NNW,338,0.0,0.0,46,0.00,,,0.00,WeatherCatV1.11B39,2013-02-11 23:10:00,
2013-02-11 15:15:00,58.9,38.2,30.14,NNE,22,0.0,0.0,46,0.00,,,0.00,WeatherCatV1.11B39,2013-02-11 23:15:00,
2013-02-11 15:20:00,58.9,38.2,30.14,North,0,0.0,0.0,46,0.00,,,0.00,WeatherCatV1.11B39,2013-02-11 23:20:00,
2013-02-11 15:25:00,59.0,38.2,30.14,North,0,0.0,2.0,46,0.00,,,0.00,WeatherCatV1.11B39,2013-02-11 23:25:00,
2013-02-11 15:30:00,59.3,39.6,30.14,North,0,0.0,2.0,48,0.00,,,0.00,WeatherCatV1.11B39,2013-02-11 23:30:00,
2013-02-11 15:35:00,59.4,38.6,30.14,North,0,0.0,0.0,46,0.00,,,0.00,WeatherCatV1.11B39,2013-02-11 23:35:00,
2013-02-11 15:40:00,59.6,38.8,30.14,NW,315,1.0,3.0,46,0.00,,,0.00,WeatherCatV1.11B39,2013-02-11 23:40:00,
2013-02-11 15:45:00,59.7,38.3,30.14,WSW,248,3.0,5.0,45,0.00,,,0.00,WeatherCatV1.11B39,2013-02-11 23:45:00,
2013-02-11 15:50:00,59.6,38.8,30.14,WSW,248,0.0,1.0,46,0.00,,,0.00,WeatherCatV1.11B39,2013-02-11 23:50:00,
2013-02-11 15:55:00,59.5,38.7,30.14,West,270,3.0,4.0,46,0.00,,,0.00,WeatherCatV1.11B39,2013-02-11 23:55:00,
2013-02-11 16:00:00,59.3,38.5,30.14,WNW,292,0.0,2.0,46,0.00,,,0.00,WeatherCatV1.11B39,2013-02-12 00:00:00,
2013-02-11 16:05:00,59.2,37.3,30.14,WNW,292,0.0,0.0,44,0.00,,,0.00,WeatherCatV1.11B39,2013-02-12 00:05:00,
2013-02-11 16:10:00,59.1,38.3,30.14,WNW,292,0.0,1.0,46,0.00,,,0.00,WeatherCatV1.11B39,2013-02-12 00:10:00,
2013-02-11 16:15:00,59.0,37.7,30.14,WNW,292,0.0,1.0,45,0.00,,,0.00,WeatherCatV1.11B39,2013-02-12 00:15:00,
2013-02-11 16:20:00,58.8,38.1,30.14,WNW,292,1.0,3.0,46,0.00,,,0.00,WeatherCatV1.11B39,2013-02-12 00:20:00,
2013-02-11 16:25:00,58.7,38.0,30.14,WNW,292,0.0,1.0,46,0.00,,,0.00,WeatherCatV1.11B39,2013-02-12 00:25:00,
2013-02-11 16:30:00,58.7,39.1,30.14,WNW,292,0.0,1.0,48,0.00,,,0.00,WeatherCatV1.11B39,2013-02-12 00:30:00,
2013-02-11 16:35:00,58.6,38.4,30.15,WNW,292,0.0,0.0,47,0.00,,,0.00,WeatherCatV1.11B39,2013-02-12 00:35:00,
2013-02-11 16:40:00,58.6,39.5,30.15,WNW,292,0.0,0.0,49,0.00,,,0.00,WeatherCatV1.11B39,2013-02-12 00:40:00,
2013-02-11 16:45:00,58.4,39.3,30.15,West,270,0.0,2.0,49,0.00,,,0.00,WeatherCatV1.11B39,2013-02-12 00:45:00,
2013-02-11 16:50:00,58.2,38.6,30.15,West,270,0.0,1.0,48,0.00,,,0.00,WeatherCatV1.11B39,2013-02-12 00:50:00,
2013-02-11 16:55:00,57.9,38.9,30.15,West,270,0.0,1.0,49,0.00,,,0.00,WeatherCatV1.11B39,2013-02-12 00:55:00,
2013-02-11 17:00:00,57.7,39.7,30.15,West,270,0.0,0.0,51,0.00,,,0.00,WeatherCatV1.11B39,2013-02-12 01:00:00,
2013-02-11 17:05:00,57.5,39.5,30.15,West,270,0.0,0.0,51,0.00,,,0.00,WeatherCatV1.11B39,2013-02-12 01:05:00,
2013-02-11 17:10:00,57.2,39.2,30.15,West,270,0.0,0.0,51,0.00,,,0.00,WeatherCatV1.11B39,2013-02-12 01:10:00,
2013-02-11 17:15:00,57.0,40.0,30.15,West,270,0.0,0.0,53,0.00,,,0.00,WeatherCatV1.11B39,2013-02-12 01:15:00,
2013-02-11 17:20:00,56.6,39.7,30.15,West,270,0.0,0.0,53,0.00,,,0.00,WeatherCatV1.11B39,2013-02-12 01:20:00,
2013-02-11 17:25:00,56.3,39.9,30.15,West,270,0.0,0.0,54,0.00,,,0.00,WeatherCatV1.11B39,2013-02-12 01:25:00,
2013-02-11 17:30:00,55.9,40.0,30.15,West,270,0.0,0.0,55,0.00,,,0.00,WeatherCatV1.11B39,2013-02-12 01:30:00,
2013-02-11 17:35:00,55.5,40.5,30.15,West,270,0.0,1.0,57,0.00,,,0.00,WeatherCatV1.11B39,2013-02-12 01:35:00,
2013-02-11 17:40:00,55.0,40.5,30.16,West,270,0.0,0.0,58,0.00,,,0.00,WeatherCatV1.11B39,2013-02-12 01:40:00,
2013-02-11 17:45:00,54.7,39.8,30.16,West,270,0.0,0.0,57,0.00,,,0.00,WeatherCatV1.11B39,2013-02-12 01:45:00,
2013-02-11 17:50:00,54.2,39.3,30.16,West,270,0.0,0.0,57,0.00,,,0.00,WeatherCatV1.11B39,2013-02-12 01:50:00,
2013-02-11 17:55:00,53.7,39.7,30.16,West,270,0.0,0.0,59,0.00,,,0.00,WeatherCatV1.11B39,2013-02-12 01:55:00,
2013-02-11 18:00:00,53.2,39.3,30.16,West,270,0.0,0.0,59,0.00,,,0.00,WeatherCatV1.11B39,2013-02-12 02:00:00,
2013-02-11 18:05:00,52.7,39.6,30.16,West,270,0.0,0.0,61,0.00,,,0.00,WeatherCatV1.11B39,2013-02-12 02:05:00,
2013-02-11 18:10:00,52.1,39.5,30.16,West,270,0.0,0.0,62,0.00,,,0.00,WeatherCatV1.11B39,2013-02-12 02:10:00,
2013-02-11 18:15:00,51.5,38.9,30.16,West,270,0.0,0.0,62,0.00,,,0.00,WeatherCatV1.11B39,2013-02-12 02:15:00,
2013-02-11 18:20:00,51.0,39.3,30.16,West,270,0.0,0.0,64,0.00,,,0.00,WeatherCatV1.11B39,2013-02-12 02:20:00,
2013-02-11 18:25:00,50.4,38.7,30.17,West,270,0.0,0.0,64,0.00,,,0.00,WeatherCatV1.11B39,2013-02-12 02:25:00,
2013-02-11 18:30:00,50.0,39.1,30.17,West,270,0.0,0.0,66,0.00,,,0.00,WeatherCatV1.11B39,2013-02-12 02:30:00,
2013-02-11 18:35:00,49.6,38.7,30.17,West,270,0.0,0.0,66,0.00,,,0.00,WeatherCatV1.11B39,2013-02-12 02:35:00,
2013-02-11 18:40:00,49.1,38.6,30.17,West,270,0.0,0.0,67,0.00,,,0.00,WeatherCatV1.11B39,2013-02-12 02:40:00,
2013-02-11 18:45:00,48.4,38.7,30.17,West,270,0.0,0.0,69,0.00,,,0.00,WeatherCatV1.11B39,2013-02-12 02:45:00,
2013-02-11 18:50:00,48.0,38.7,30.17,West,270,0.0,0.0,70,0.00,,,0.00,WeatherCatV1.11B39,2013-02-12 02:50:00,
2013-02-11 18:55:00,47.6,38.3,30.17,West,270,0.0,0.0,70,0.00,,,0.00,WeatherCatV1.11B39,2013-02-12 02:55:00,
2013-02-11 19:00:00,47.2,38.6,30.17,West,270,0.0,0.0,72,0.00,,,0.00,WeatherCatV1.11B39,2013-02-12 03:00:00,
2013-02-11 19:05:00,46.8,38.3,30.18,West,270,0.0,0.0,72,0.00,,,0.00,WeatherCatV1.11B39,2013-02-12 03:05:00,
2013-02-11 19:10:00,46.3,37.8,30.18,West,270,0.0,0.0,72,0.00,,,0.00,WeatherCatV1.11B39,2013-02-12 03:10:00,
2013-02-11 19:15:00,45.9,37.4,30.18,West,270,0.0,0.0,72,0.00,,,0.00,WeatherCatV1.11B39,2013-02-12 03:15:00,
2013-02-11 19:20:00,45.5,37.0,30.18,West,270,0.0,0.0,72,0.00,,,0.00,WeatherCatV1.11B39,2013-02-12 03:20:00,
2013-02-11 19:25:00,45.1,36.6,30.18,West,270,0.0,0.0,72,0.00,,,0.00,WeatherCatV1.11B39,2013-02-12 03:25:00,
2013-02-11 19:30:00,44.7,36.9,30.18,West,270,0.0,0.0,74,0.00,,,0.00,WeatherCatV1.11B39,2013-02-12 03:30:00,
2013-02-11 19:35:00,44.4,36.6,30.18,West,270,0.0,0.0,74,0.00,,,0.00,WeatherCatV1.11B39,2013-02-12 03:35:00,
2013-02-11 19:40:00,44.2,36.4,30.19,West,270,0.0,0.0,74,0.00,,,0.00,WeatherCatV1.11B39,2013-02-12 03:40:00,
2013-02-11 19:45:00,43.8,36.1,30.19,West,270,0.0,0.0,74,0.00,,,0.00,WeatherCatV1.11B39,2013-02-12 03:45:00,
2013-02-11 19:50:00,43.6,36.2,30.19,West,270,0.0,0.0,75,0.00,,,0.00,WeatherCatV1.11B39,2013-02-12 03:50:00,
2013-02-11 19:55:00,43.4,36.7,30.19,West,270,0.0,0.0,77,0.00,,,0.00,WeatherCatV1.11B39,2013-02-12 03:55:00,
2013-02-11 20:00:00,43.1,36.4,30.18,West,270,0.0,0.0,77,0.00,,,0.00,WeatherCatV1.11B39,2013-02-12 04:00:00,
2013-02-11 20:05:00,42.9,36.2,30.19,West,270,0.0,0.0,77,0.00,,,0.00,WeatherCatV1.11B39,2013-02-12 04:05:00,
2013-02-11 20:10:00,42.8,36.4,30.19,West,270,0.0,0.0,78,0.00,,,0.00,WeatherCatV1.11B39,2013-02-12 04:10:00,
2013-02-11 20:15:00,42.5,36.1,30.19,West,270,0.0,0.0,78,0.00,,,0.00,WeatherCatV1.11B39,2013-02-12 04:15:00,
2013-02-11 20:20:00,42.3,35.9,30.19,West,270,0.0,0.0,78,0.00,,,0.00,WeatherCatV1.11B39,2013-02-12 04:20:00,
2013-02-11 20:25:00,42.2,36.2,30.19,West,270,0.0,0.0,79,0.00,,,0.00,WeatherCatV1.11B39,2013-02-12 04:25:00,
2013-02-11 20:30:00,41.9,35.9,30.19,West,270,0.0,0.0,79,0.00,,,0.00,WeatherCatV1.11B39,2013-02-12 04:30:00,
2013-02-11 20:35:00,41.7,35.7,30.19,West,270,0.0,0.0,79,0.00,,,0.00,WeatherCatV1.11B39,2013-02-12 04:35:00,
2013-02-11 20:40:00,41.5,35.8,30.19,West,270,0.0,0.0,80,0.00,,,0.00,WeatherCatV1.11B39,2013-02-12 04:40:00,
2013-02-11 20:45:00,41.3,35.6,30.20,West,270,0.0,0.0,80,0.00,,,0.00,WeatherCatV1.11B39,2013-02-12 04:45:00,
2013-02-11 20:50:00,41.0,35.0,30.20,West,270,0.0,0.0,79,0.00,,,0.00,WeatherCatV1.11B39,2013-02-12 04:50:00,
2013-02-11 20:55:00,40.8,35.1,30.20,West,270,0.0,0.0,80,0.00,,,0.00,WeatherCatV1.11B39,2013-02-12 04:55:00,
2013-02-11 21:00:00,40.6,34.9,30.20,West,270,0.0,0.0,80,0.00,,,0.00,WeatherCatV1.11B39,2013-02-12 05:00:00,
2013-02-11 21:05:00,40.4,35.0,30.20,West,270,0.0,0.0,81,0.00,,,0.00,WeatherCatV1.11B39,2013-02-12 05:05:00,
2013-02-11 21:10:00,40.2,35.2,30.20,West,270,0.0,0.0,82,0.00,,,0.00,WeatherCatV1.11B39,2013-02-12 05:10:00,
2013-02-11 21:15:00,40.0,35.0,30.20,West,270,0.0,0.0,82,0.00,,,0.00,WeatherCatV1.11B39,2013-02-12 05:15:00,
2013-02-11 21:20:00,39.8,34.8,30.20,West,270,0.0,0.0,82,0.00,,,0.00,WeatherCatV1.11B39,2013-02-12 05:20:00,
2013-02-11 21:25:00,39.6,34.9,30.21,West,270,0.0,0.0,83,0.00,,,0.00,WeatherCatV1.11B39,2013-02-12 05:25:00,
2013-02-11 21:30:00,39.4,34.7,30.21,West,270,0.0,0.0,83,0.00,,,0.00,WeatherCatV1.11B39,2013-02-12 05:30:00,
2013-02-11 21:35:00,39.2,34.8,30.21,West,270,0.0,0.0,84,0.00,,,0.00,WeatherCatV1.11B39,2013-02-12 05:35:00,
2013-02-11 21:40:00,39.1,34.7,30.20,West,270,0.0,0.0,84,0.00,,,0.00,WeatherCatV1.11B39,2013-02-12 05:40:00,
2013-02-11 21:45:00,39.1,34.7,30.21,West,270,0.0,0.0,84,0.00,,,0.00,WeatherCatV1.11B39,2013-02-12 05:45:00,
2013-02-11 21:50:00,39.1,35.0,30.21,West,270,0.0,0.0,85,0.00,,,0.00,WeatherCatV1.11B39,2013-02-12 05:50:00,
2013-02-11 21:55:00,39.0,34.9,30.21,West,270,0.0,0.0,85,0.00,,,0.00,WeatherCatV1.11B39,2013-02-12 05:55:00,
2013-02-11 22:00:00,39.0,35.2,30.21,West,270,0.0,0.0,86,0.00,,,0.00,WeatherCatV1.11B39,2013-02-12 06:00:00,
2013-02-11 22:05:00,39.0,35.2,30.21,West,270,0.0,0.0,86,0.00,,,0.00,WeatherCatV1.11B39,2013-02-12 06:05:00,
2013-02-11 22:10:00,39.0,35.2,30.21,West,270,0.0,0.0,86,0.00,,,0.00,WeatherCatV1.11B39,2013-02-12 06:10:00,
2013-02-11 22:15:00,38.9,35.4,30.21,West,270,0.0,0.0,87,0.00,,,0.00,WeatherCatV1.11B39,2013-02-12 06:15:00,
2013-02-11 22:20:00,38.8,35.3,30.21,West,270,0.0,0.0,87,0.00,,,0.00,WeatherCatV1.11B39,2013-02-12 06:20:00,
2013-02-11 22:25:00,38.6,34.8,30.21,West,270,0.0,0.0,86,0.00,,,0.00,WeatherCatV1.11B39,2013-02-12 06:25:00,
2013-02-11 22:30:00,38.5,35.0,30.21,West,270,0.0,0.0,87,0.00,,,0.00,WeatherCatV1.11B39,2013-02-12 06:30:00,
2013-02-11 22:35:00,38.3,34.5,30.22,West,270,0.0,0.0,86,0.00,,,0.00,WeatherCatV1.11B39,2013-02-12 06:35:00,
2013-02-11 22:40:00,38.1,34.3,30.21,West,270,0.0,0.0,86,0.00,,,0.00,WeatherCatV1.11B39,2013-02-12 06:40:00,
2013-02-11 22:45:00,37.8,34.0,30.21,West,270,0.0,0.0,86,0.00,,,0.00,WeatherCatV1.11B39,2013-02-12 06:45:00,
2013-02-11 22:50:00,37.4,33.9,30.21,West,270,0.0,0.0,87,0.00,,,0.00,WeatherCatV1.11B39,2013-02-12 06:50:00,
2013-02-11 22:55:00,37.2,34.0,30.22,West,270,0.0,0.0,88,0.00,,,0.00,WeatherCatV1.11B39,2013-02-12 06:55:00,
2013-02-11 23:00:00,37.1,33.9,30.22,West,270,0.0,0.0,88,0.00,,,0.00,WeatherCatV1.11B39,2013-02-12 07:00:00,
2013-02-11 23:05:00,36.9,33.7,30.22,West,270,0.0,0.0,88,0.00,,,0.00,WeatherCatV1.11B39,2013-02-12 07:05:00,
2013-02-11 23:10:00,36.9,33.7,30.22,West,270,0.0,0.0,88,0.00,,,0.00,WeatherCatV1.11B39,2013-02-12 07:10:00,
2013-02-11 23:15:00,36.8,33.9,30.22,West,270,0.0,0.0,89,0.00,,,0.00,WeatherCatV1.11B39,2013-02-12 07:15:00,
2013-02-11 23:20:00,36.7,33.8,30.22,West,270,0.0,0.0,89,0.00,,,0.00,WeatherCatV1.11B39,2013-02-12 07:20:00,
2013-02-11 23:25:00,36.6,33.7,30.22,West,270,0.0,0.0,89,0.00,,,0.00,WeatherCatV1.11B39,2013-02-12 07:25:00,
2013-02-11 23:30:00,36.4,33.5,30.22,West,270,0.0,0.0,89,0.00,,,0.00,WeatherCatV1.11B39,2013-02-12 07:30:00,
2013-02-11 23:35:00,36.3,33.4,30.23,West,270,0.0,0.0,89,0.00,,,0.00,WeatherCatV1.11B39,2013-02-12 07:35:00,
2013-02-11 23:40:00,36.0,32.8,30.23,West,270,0.0,0.0,88,0.00,,,0.00,WeatherCatV1.11B39,2013-02-12 07:40:00,
2013-02-11 23:45:00,35.8,32.9,30.23,West,270,0.0,0.0,89,0.00,,,0.00,WeatherCatV1.11B39,2013-02-12 07:45:00,
2013-02-11 23:50:00,35.7,32.8,30.23,West,270,0.0,0.0,89,0.00,,,0.00,WeatherCatV1.11B39,2013-02-12 07:50:00,
2013-02-11 23:55:00,35.6,32.7,30.23,West,270,0.0,0.0,89,0.00,,,0.00,WeatherCatV1.11B39,2013-02-12 07:55:00,